Tracking 27122 objects as of 24-Mar-2023
HD Live streaming from Space Station
objects crossing your sky now

STARLINK-4016

Track STARLINK-4016 now!
10-day predictions
STARLINK-4016 is classified as:


NORAD ID: 52603
Int'l Code: 2022-052F
Perigee: 545.9 km
Apogee: 547.9 km
Inclination: 53.2 °
Period: 95.4 minutes
Semi major axis: 6917 km
RCS: Unknown
Launch date: May 14, 2022
Source: United States (US)
Launch site: AIR FORCE EASTERN TEST RANGE (AFETR)
Your satellite tracking list
Your tracking list is empty




NASA's NSSDC Master Catalog

Two Line Element Set (TLE):
1 52603U 22052F   23083.14775337  .00004206  00000-0  28214-3 0  9992
2 52603  53.2144  94.3587 0001439  84.0623 276.0534 15.08847790 47954
Source of the keplerian elements: AFSPC